SCD 2

Last updated on Tue Oct 15 2024 00:02:23 GMT+0000 (Coordinated Universal Time)

1 25504U 98060A 24288.58708806 .00001076 00000+0 25179-3 0 9995 2 25504 24.9949 236.4667 0017030 152.0254 8.7337 14.44979482371897
UTC large
Height (km)
Speed (km/s)
/
Latitude / Longitude
Inclination (degrees)
Orbital Period (minutes)
Azimuth
Elevation
Range (km)
Doppler Factor

Next 0 passes for location: London (51.5072 / 0.1276)

Sorry there are no passes over London.